Jefferson, NC

2:31 PM EDT on August 18, 2017 (GMT -0400)
Ashe County

Weather History for KGEV - February, 2008

Change the Weather History Date:

Friday, February 8, 2008

  Actual Average Record
Temperature  
Mean Temperature 44 °F -  
Max Temperature 53 °F 43 °F 64 °F (2015)
Min Temperature 35 °F 20 °F -3 °F (1977)
Degree Days  
Heating Degree Days 21    
Moisture  
Dew Point 24 °F    
Average Humidity 51    
Maximum Humidity 70    
Minimum Humidity 28    
Precipitation  
Precipitation 0.00 in - - ()
Sea Level Pressure  
Sea Level Pressure 29.89 in    
Wind  
Wind Speed 6 mph (West)    
Max Wind Speed 21 mph    
Max Gust Speed 33 mph    
Visibility 10 miles    
Events      
Averages and records for this station are not official NWS values.
T = Trace of Precipitation, MM = Missing Value Source: NWS Daily Summary

Daily Weather History Graph

Daily Weather History Graph

Search for Another Location

Airport or City:

Trip Planner

Search our weather history database for the weather conditions in past years. The results will help you decide how hot, cold, wet, or windy it might be!

Date:

Astronomy

Feb. 08, 2008 Rise Set
Actual Time 7:21 AM EST 5:58 PM EST
Civil Twilight 6:54 AM EST 6:25 PM EST
Nautical Twilight 6:24 AM EST 6:56 PM EST
Astronomical Twilight 5:54 AM EST 7:26 PM EST
Moon 8:11 AM EST (2/8) 7:51 PM EST (2/8)
Length of Visible Light 11h 30m
Length of Day
10h 37m
Waxing Crescent, 3% of the Moon is Illuminated
Feb 8
Waxing Crescent
Feb 13
First Quarter
Feb 20
Full
Feb 28
Last Quarter
Mar 7
New

Hourly Weather History & Observations

Time (EST) Temp. Windchill Dew Point Humidity Pressure Visibility Wind Dir Wind Speed Gust Speed Precip Events Conditions
12:01 AM 37.4 °F 33.8 °F 24.8 °F 60% 29.84 in 10.0 mi NNW 4.6 mph - N/A   Clear
12:21 AM 37.4 °F 33.8 °F 24.8 °F 60% 29.84 in 10.0 mi NNW 4.6 mph - N/A   Clear
12:42 AM 35.6 °F 32.8 °F 26.6 °F 70% 29.85 in 10.0 mi WNW 3.5 mph - N/A   Scattered Clouds
1:02 AM 37.4 °F - 26.6 °F 65% 29.84 in 10.0 mi Calm Calm - N/A   Overcast
1:21 AM 35.6 °F - 24.8 °F 65% 29.83 in 10.0 mi Calm Calm - N/A   Mostly Cloudy
2:01 AM 35.6 °F - 24.8 °F 65% 29.82 in 10.0 mi Calm Calm - N/A   Clear
2:24 AM 37.4 °F 32.1 °F 24.8 °F 60% 29.83 in 10.0 mi WNW 6.9 mph - N/A   Scattered Clouds
2:41 AM 37.4 °F 31.4 °F 21.2 °F 52% 29.83 in 10.0 mi West 8.1 mph - N/A   Scattered Clouds
3:21 AM 37.4 °F 32.8 °F 23.0 °F 56% 29.83 in 10.0 mi WNW 5.8 mph 24.2 mph N/A   Clear
3:41 AM 37.4 °F 32.1 °F 23.0 °F 56% 29.84 in 10.0 mi WNW 6.9 mph 18.4 mph N/A   Clear
4:01 AM 37.4 °F 31.4 °F 24.8 °F 60% 29.83 in 10.0 mi NW 8.1 mph - N/A   Scattered Clouds
4:21 AM 37.4 °F 34.9 °F 24.8 °F 60% 29.83 in 10.0 mi NW 3.5 mph - N/A   Scattered Clouds
4:41 AM 37.4 °F 32.8 °F 26.6 °F 65% 29.84 in 10.0 mi NNW 5.8 mph - N/A   Clear
5:01 AM 37.4 °F 31.4 °F 26.6 °F 65% 29.84 in 10.0 mi NNW 8.1 mph - N/A   Clear
5:21 AM 37.4 °F 34.9 °F 26.6 °F 65% 29.85 in 10.0 mi NE 3.5 mph - N/A   Clear
5:41 AM 37.4 °F - 26.6 °F 65% 29.85 in 10.0 mi Calm Calm - N/A   Clear
6:02 AM 37.4 °F 30.8 °F 26.6 °F 65% 29.85 in 10.0 mi West 9.2 mph - N/A   Clear
6:21 AM 37.4 °F 26.9 °F 26.6 °F 65% 29.84 in 10.0 mi West 20.7 mph 33.4 mph N/A   Clear
6:41 AM 37.4 °F 26.9 °F 26.6 °F 65% 29.85 in 10.0 mi West 20.7 mph 32.2 mph N/A   Clear
7:01 AM 37.4 °F 27.5 °F 26.6 °F 65% 29.86 in 10.0 mi West 18.4 mph 32.2 mph N/A   Clear
7:21 AM 37.4 °F 30.3 °F 26.6 °F 65% 29.87 in 10.0 mi West 10.4 mph 29.9 mph N/A   Clear
7:41 AM 37.4 °F 27.2 °F 24.8 °F 60% 29.87 in 10.0 mi West 19.6 mph 26.5 mph N/A   Clear
8:01 AM 37.4 °F 28.5 °F 26.6 °F 65% 29.89 in 10.0 mi West 15.0 mph 18.4 mph N/A   Clear
8:23 AM 37.4 °F 34.9 °F 26.6 °F 65% 29.91 in 10.0 mi West 3.5 mph - N/A   Clear
8:41 AM 37.4 °F 30.8 °F 24.8 °F 60% 29.92 in 10.0 mi WNW 9.2 mph 16.1 mph N/A   Scattered Clouds
9:01 AM 37.4 °F 32.8 °F 26.6 °F 65% 29.93 in 10.0 mi West 5.8 mph 16.1 mph N/A   Scattered Clouds
9:21 AM 37.4 °F 30.8 °F 24.8 °F 60% 29.93 in 10.0 mi WNW 9.2 mph - N/A   Clear
9:41 AM 39.2 °F 32.0 °F 24.8 °F 56% 29.93 in 10.0 mi West 11.5 mph 18.4 mph N/A   Scattered Clouds
10:01 AM 39.2 °F 32.5 °F 26.6 °F 61% 29.93 in 10.0 mi West 10.4 mph - N/A   Scattered Clouds
10:21 AM 39.2 °F 33.6 °F 24.8 °F 56% 29.93 in 10.0 mi West 8.1 mph - N/A   Clear
10:43 AM 39.2 °F 35.0 °F 23.0 °F 52% 29.93 in 10.0 mi West 5.8 mph 17.3 mph N/A   Clear
11:03 AM 42.8 °F 36.6 °F 23.0 °F 46% 29.94 in 10.0 mi West 11.5 mph - N/A   Clear
11:23 AM 42.8 °F 38.6 °F 23.0 °F 46% 29.94 in 10.0 mi West 6.9 mph - N/A   Clear
11:43 AM 42.8 °F 35.8 °F 21.2 °F 42% 29.94 in 10.0 mi West 13.8 mph 18.4 mph N/A   Clear
12:02 PM 44.6 °F 39.2 °F 21.2 °F 39% 29.94 in 10.0 mi West 10.4 mph 18.4 mph N/A   Clear
12:22 PM 44.6 °F 38.8 °F 21.2 °F 39% 29.93 in 10.0 mi West 11.5 mph 18.4 mph N/A   Clear
12:41 PM 46.4 °F 42.9 °F 21.2 °F 37% 29.92 in 10.0 mi WNW 6.9 mph - N/A   Clear
1:03 PM 46.4 °F 42.4 °F 21.2 °F 37% 29.91 in 10.0 mi WSW 8.1 mph 17.3 mph N/A   Clear
1:22 PM 46.4 °F 41.1 °F 21.2 °F 37% 29.90 in 10.0 mi NW 11.5 mph 19.6 mph N/A   Clear
1:43 PM 48.2 °F - 21.2 °F 34% 29.90 in 10.0 mi WNW 13.8 mph 18.4 mph N/A   Clear
2:02 PM 48.2 °F - 21.2 °F 34% 29.89 in 10.0 mi West 8.1 mph 16.1 mph N/A   Clear
2:22 PM 50.0 °F - 21.2 °F 32% 29.89 in 10.0 mi West 10.4 mph - N/A   Clear
2:42 PM 50.0 °F - 21.2 °F 32% 29.89 in 10.0 mi West 6.9 mph - N/A   Clear
3:02 PM 50.0 °F - 21.2 °F 32% 29.88 in 10.0 mi WSW 6.9 mph - N/A   Clear
3:22 PM 50.0 °F - 19.4 °F 30% 29.88 in 10.0 mi West 6.9 mph 10.4 mph N/A   Clear
3:42 PM 53.6 °F - 21.2 °F 28% 29.88 in 10.0 mi WSW 4.6 mph - N/A   Clear
4:22 PM 51.8 °F - 21.2 °F 30% 29.89 in 10.0 mi WSW 5.8 mph - N/A   Clear
4:42 PM 50.0 °F - 21.2 °F 32% 29.90 in 10.0 mi Calm Calm - N/A   Clear
5:02 PM 50.0 °F - 21.2 °F 32% 29.90 in 10.0 mi Calm Calm - N/A   Clear
5:22 PM 50.0 °F - 21.2 °F 32% 29.90 in 10.0 mi Calm Calm - N/A   Clear
5:42 PM 46.4 °F - 24.8 °F 43% 29.91 in 10.0 mi Calm Calm - N/A   Clear
6:02 PM 44.6 °F 43.1 °F 24.8 °F 46% 29.92 in 10.0 mi SSE 3.5 mph - N/A   Clear
6:22 PM 44.6 °F - 24.8 °F 46% 29.92 in 10.0 mi Calm Calm - N/A   Clear
6:42 PM 44.6 °F - 24.8 °F 46% 29.93 in 10.0 mi Calm Calm - N/A   Clear
7:02 PM 42.8 °F - 24.8 °F 49% 29.93 in 10.0 mi Calm Calm - N/A   Clear
7:22 PM 42.8 °F 41.1 °F 24.8 °F 49% 29.93 in 10.0 mi SSE 3.5 mph - N/A   Clear
7:42 PM 42.8 °F 40.1 °F 24.8 °F 49% 29.93 in 10.0 mi South 4.6 mph - N/A   Clear
8:02 PM 42.8 °F - 26.6 °F 53% 29.93 in 10.0 mi Calm Calm - N/A   Clear
8:22 PM 42.8 °F 41.1 °F 26.6 °F 53% 29.93 in 10.0 mi South 3.5 mph - N/A   Clear
8:42 PM 42.8 °F - 26.6 °F 53% 29.93 in 10.0 mi Calm Calm - N/A   Clear
9:02 PM 42.8 °F - 26.6 °F 53% 29.92 in 10.0 mi Calm Calm - N/A   Clear
9:21 PM 42.8 °F - 26.6 °F 53% 29.93 in 10.0 mi Calm Calm - N/A   Clear
9:41 PM 42.8 °F - 26.6 °F 53% 29.92 in 10.0 mi Calm Calm - N/A   Clear
10:02 PM 41.0 °F - 26.6 °F 57% 29.93 in 10.0 mi Calm Calm - N/A   Clear
10:22 PM 41.0 °F - 26.6 °F 57% 29.93 in 10.0 mi Calm Calm - N/A   Clear
10:41 PM 41.0 °F - 26.6 °F 57% 29.92 in 10.0 mi Calm Calm - N/A   Clear
11:01 PM 39.2 °F - 26.6 °F 61% 29.92 in 10.0 mi Calm Calm - N/A   Clear
11:22 PM 39.2 °F 37.0 °F 26.6 °F 61% 29.92 in 10.0 mi South 3.5 mph - N/A   Clear
11:43 PM 39.2 °F - 28.4 °F 65% 29.91 in 10.0 mi Calm Calm - N/A   Clear